Latest Coastal Weather Observations for Christmas Island

IDW60701

Issued at 9:22 pm WST Tuesday 28 July 2015 (issued every 10 minutes, with the page automatically refreshed every 10 minutes)

About coastal observations | Map of coastal stations | Coastal observations for WA | Marine services | Other Formats
Station Details ID: 200790 Name: CHRISTMAS ISLAND AERO Lat: -10.45 Lon: 105.69 Height: 261.0 m
Data from the previous 72 hours. | See also: Recent months at Christmas Island
Date/Time
WST
Temp

°C
Wind Pressure Rain
since 9am
mm
Weather Cloud Vis
km
Sea
Height
m
Swell
Dir
 
Speed
knots
Gust
knots
hPa Trend Height
m
Period
s
Dir
28/09:05pm 23.9 ESE 12 17 1016.8 - 0.0 - Partly cloudy - - - - -
28/09:00pm 24.0 ESE 13 18 1016.7 - 0.0 - Partly cloudy - - - - -
28/08:00pm 23.9 ESE 12 18 1015.9 - 0.0 - Partly cloudy - - - - -
28/07:27pm 23.9 ESE 12 19 1015.8 - 0.0 - Partly cloudy - - - - -
28/07:00pm 23.9 ESE 13 17 1014.2 - 0.0 - Partly cloudy - - - - -
28/06:00pm 24.5 E 11 18 1015.8 - 0.0 - Partly cloudy - - - - -
28/05:41pm 24.5 ESE 11 18 1015.8 - 0.0 - Partly cloudy - - - - -
28/05:34pm 24.7 ESE 11 18 1015.8 - 0.0 - Partly cloudy - - - - -
28/05:00pm 24.9 ESE 12 18 1015.8 - 0.0 - Partly cloudy - - - - -
28/04:34pm 25.4 ESE 13 17 1015.9 - 0.0 - Partly cloudy - - - - -
28/04:11pm 25.3 ESE 12 17 1016.2 - 0.0 - Partly cloudy - - - - -
28/04:00pm 25.2 ESE 11 18 1014.9 - 0.0 - Cloudy - - - - -
28/03:00pm 25.4 ESE 13 19 1016.3 - 0.0 - Partly cloudy - - - - -
28/02:00pm 26.0 ESE 12 18 1017.0 - 0.0 - Partly cloudy - - - - -
28/01:47pm 25.7 ESE 12 16 1017.2 - 0.0 - Partly cloudy - - - - -
28/01:29pm 26.0 ESE 13 20 1017.5 - 0.0 - Partly cloudy - - - - -
28/01:00pm 25.4 ESE 12 20 1016.5 - 0.0 - Cloudy - - - - -
28/12:59pm 25.8 ESE 12 20 1017.9 - 0.0 - Partly cloudy - - - - -
28/12:58pm 25.8 ESE 12 18 1017.9 - 0.0 - Partly cloudy - - - - -
28/12:00pm 25.9 ESE 11 17 1018.6 - 0.0 - Partly cloudy - - - - -
28/11:00am 25.4 E 10 16 1018.9 - 0.0 - Partly cloudy - - - - -
28/10:46am 25.0 ESE 11 18 1019.0 - 0.0 - Partly cloudy - - - - -
28/10:40am 25.3 ESE 11 17 1019.0 - 0.0 - Partly cloudy - - - - -
28/10:00am 25.1 E 13 19 1017.6 - 0.0 - Mostly cloudy - - - - -
28/09:00am 24.9 E 10 17 1018.1 - 0.0 - Partly cloudy - - - - -
28/08:55am 25.0 E 10 17 1018.1 - 0.0 - Partly cloudy - - - - -
28/08:36am 24.4 E 11 19 1017.9 - 0.0 - Partly cloudy - - - - -
28/08:00am 24.0 E 10 17 1017.8 - 0.0 - Partly cloudy - - - - -
28/07:00am 23.5 ESE 9 15 1015.9 - 0.0 - Cloudy - - - - -
28/06:25am 23.5 ESE 8 16 1017.1 - 0.0 - Partly cloudy - - - - -
28/06:18am 23.5 ESE 9 16 1017.1 - 0.0 - Partly cloudy - - - - -
28/06:00am 23.5 ESE 10 16 1017.0 - 0.0 - Partly cloudy - - - - -
28/05:00am 23.4 E 9 16 1016.6 - 0.0 - Partly cloudy - - - - -
28/04:33am 23.5 E 9 15 1016.7 - 0.0 - Partly cloudy - - - - -
28/04:00am 23.4 ESE 10 17 1015.1 - 0.0 - Partly cloudy - - - - -
28/03:38am 23.3 E 10 16 1016.5 - 0.0 - Partly cloudy - - - - -
28/03:26am 23.4 ESE 9 15 1016.7 - 0.0 - Partly cloudy - - - - -
28/03:19am 23.4 ESE 10 15 1016.8 - 0.0 - Partly cloudy - - - - -
28/03:00am 23.5 E 11 18 1017.0 - 0.0 - Partly cloudy - - - - -
28/02:00am 23.5 E 10 13 1017.4 - 0.0 - Partly cloudy - - - - -
28/01:59am 23.5 E 10 13 1017.4 - 0.0 - Partly cloudy - - - - -
28/01:34am 23.5 E 10 15 1017.7 - 0.0 - Partly cloudy - - - - -
28/01:00am 23.7 ESE 10 17 1016.5 - 0.0 - Cloudy - - - - -
28/12:00am 23.6 ESE 9 13 1017.9 - 0.0 - Partly cloudy - - - - -
 
Date/Time
WST
Temp

°C
Wind Pressure Rain
since 9am
mm
Weather Cloud Vis
km
Sea
Height
m
Swell
Dir
 
Speed
knots
Gust
knots
hPa Trend Height
m
Period
s
Dir
27/11:00pm 23.6 ESE 11 15 1017.8 - 0.0 - Partly cloudy - - - - -
27/10:00pm 23.7 ESE 11 17 1016.2 - 0.0 - Mostly cloudy - - - - -
27/09:17pm 23.7 ESE 11 14 1017.4 - 0.0 - Partly cloudy - - - - -
27/09:03pm 23.7 ESE 10 14 1017.2 - 0.0 - Partly cloudy - - - - -
27/09:00pm 23.8 ESE 10 14 1017.2 - 0.0 - Partly cloudy - - - - -
27/08:00pm 23.9 ESE 10 14 1016.7 - 0.0 - Partly cloudy - - - - -
27/07:00pm 24.0 ESE 10 15 1014.6 - 0.0 - Cloudy - - - - -
27/06:45pm 24.1 ESE 9 14 1015.9 - 0.0 - Partly cloudy - - - - -
27/06:15pm 24.5 ESE 10 14 1015.7 - 0.0 - Partly cloudy - - - - -
27/06:00pm 24.7 E 10 13 1015.6 - 0.0 - Partly cloudy - - - - -
27/05:13pm 25.2 E 11 14 1015.5 - 0.0 - Partly cloudy - - - - -
27/05:00pm 25.2 E 11 14 1015.4 - 0.0 - Partly cloudy - - - - -
27/04:00pm 26.0 E 12 16 1014.1 - 0.0 - - - - - - -
27/03:00pm 25.9 E 13 17 1015.9 - 0.0 - Partly cloudy - - - - -
27/02:25pm 26.7 ESE 12 17 1016.5 - 0.0 - Partly cloudy - - - - -
27/02:00pm 26.3 E 11 16 1016.6 - 0.0 - Partly cloudy - - - - -
27/01:45pm 26.2 E 11 16 1016.8 - 0.0 - Partly cloudy - - - - -
27/01:00pm 26.2 E 11 18 1015.9 - 0.0 - Partly cloudy - - - - -
27/12:00pm 26.0 E 12 16 1018.0 - 0.0 - Partly cloudy - - - - -
27/11:55am 25.6 E 12 20 1018.0 - 0.0 - Partly cloudy - - - - -
27/11:00am 25.1 E 10 17 1018.3 - 0.0 - Partly cloudy - - - - -
27/10:36am 25.4 E 12 16 1018.4 - 0.0 - Partly cloudy - - - - -
27/10:00am 24.6 E 12 19 1017.0 - 0.0 - Mostly cloudy 10 - - - -
27/09:36am 24.8 E 12 17 1018.2 - 0.0 - Partly cloudy 10 - - - -
27/09:15am 24.6 E 11 17 1018.1 - 0.0 - Partly cloudy 10 - - - -
27/09:13am 24.5 E 12 19 1018.1 - 0.0 - Partly cloudy 10 - - - -
27/09:00am 24.4 E 11 19 1017.9 - 0.0 - Partly cloudy 10 - - - -
27/08:00am 23.6 E 11 15 1017.6 - 0.0 - Partly cloudy 10 - - - -
27/07:44am 23.5 E 10 15 1017.4 - 0.0 - Partly cloudy 10 - - - -
27/07:22am 23.4 E 11 17 1017.2 - 0.0 - Partly cloudy 10 - - - -
27/07:00am 23.3 E 10 16 1015.7 - 0.0 - Cloudy 10 - - - -
27/06:00am 23.4 E 9 17 1016.8 - 0.0 - Partly cloudy 10 - - - -
27/05:49am 23.4 E 11 16 1016.8 - 0.0 - Partly cloudy 10 - - - -
27/05:45am 23.4 E 11 16 1016.7 - 0.0 - Partly cloudy 10 - - - -
27/05:09am 23.4 E 11 16 1016.7 - 0.0 - Partly cloudy 10 - - - -
27/05:08am 23.4 E 11 16 1016.7 - 0.0 - Partly cloudy 10 - - - -
27/05:00am 23.5 E 10 17 1016.7 - 0.0 - Partly cloudy 10 - - - -
27/04:55am 23.5 E 10 16 1016.6 - 0.0 - Partly cloudy 10 - - - -
27/04:54am 23.5 E 10 16 1016.6 - 0.0 - Partly cloudy 10 - - - -
27/04:00am 23.3 E 10 14 1015.3 - 0.0 - Cloudy 10 - - - -
27/03:47am 23.4 E 10 15 1016.7 - 0.0 - Partly cloudy 10 - - - -
27/03:45am 23.4 E 9 15 1016.8 - 0.0 - Partly cloudy 10 - - - -
27/03:12am 23.4 E 10 15 1016.8 - 0.0 - Partly cloudy 10 - - - -
27/03:00am 23.5 E 10 17 1016.9 - 0.0 - Partly cloudy 10 - - - -
27/02:59am 23.5 E 10 17 1016.9 - 0.0 - Partly cloudy 10 - - - -
27/02:00am 23.5 ESE 10 16 1017.5 - 0.0 - Partly cloudy 10 - - - -
27/01:20am 23.5 E 9 12 1017.7 - 0.0 - Partly cloudy 10 - - - -
27/01:01am 23.4 ESE 11 16 1017.7 - 0.0 - Partly cloudy 10 - - - -
27/01:00am 23.4 ESE 10 16 1016.3 - 0.0 - Mostly cloudy 10 - - - -
27/12:46am 23.5 ESE 10 15 1017.8 - 0.0 - Partly cloudy 10 - - - -
27/12:05am 23.6 E 9 13 1018.0 - 0.0 - Partly cloudy 10 - - - -
27/12:00am 23.5 E 9 14 1018.1 - 0.0 - Partly cloudy 10 - - - -
 
Date/Time
WST
Temp

°C
Wind Pressure Rain
since 9am
mm
Weather Cloud Vis
km
Sea
Height
m
Swell
Dir
 
Speed
knots
Gust
knots
hPa Trend Height
m
Period
s
Dir
26/11:46pm 23.6 ESE 10 15 1018.2 - 0.0 - Partly cloudy 10 - - - -
26/11:05pm 23.6 E 9 14 1018.3 - 0.0 - Partly cloudy 10 - - - -
26/11:00pm 23.6 E 8 13 1018.4 - 0.0 - Partly cloudy 10 - - - -
26/10:00pm 23.7 E 9 14 1016.7 - 0.0 - Mostly cloudy 10 - - - -
26/09:20pm 23.7 ESE 12 18 1017.7 - 0.0 - Partly cloudy 10 - - - -
26/09:00pm 23.6 ESE 11 17 1017.5 - 0.0 - Partly cloudy 10 - - - -
26/08:50pm 23.6 ESE 11 15 1017.4 - 0.0 - Partly cloudy 10 - - - -
26/08:28pm 23.7 ESE 10 14 1017.2 - 0.0 - Partly cloudy 10 - - - -
26/08:00pm 23.5 ESE 10 15 1016.8 - 0.0 - Partly cloudy 10 - - - -
26/07:00pm 23.7 E 9 13 1014.6 - 0.0 - Mostly clear 10 - - - -
26/06:00pm 24.5 E 9 15 1015.6 - 0.0 - Partly cloudy 10 - - - -
26/05:00pm 25.1 E 11 15 1015.2 - 0.0 - Partly cloudy 10 - - - -
26/04:40pm 25.2 E 9 17 1015.1 - 0.0 - Partly cloudy 10 - - - -
26/04:00pm 25.3 E 10 17 1013.7 - 0.0 - Cloudy 10 - - - -
26/03:00pm 25.6 E 11 15 1015.5 - 0.0 - Partly cloudy 10 - - - -
26/02:00pm 25.2 E 12 16 1016.2 - 0.0 - Partly cloudy 10 - - - -
26/01:00pm 25.7 E 11 16 1015.5 - 0.0 - Cloudy 10 - - - -
26/12:12pm 25.1 E 11 15 1017.4 - 0.0 - Partly cloudy 10 - - - -
26/12:00pm 25.3 E 11 15 1017.5 - 0.0 - Partly cloudy 10 - - - -
26/11:54am 25.9 E 9 14 1017.6 - 0.0 - Partly cloudy 10 - - - -
26/11:00am 25.1 - - - 1017.7 - 0.0 - Partly cloudy 10 - - - -
26/10:00am 25.1 E 11 15 1016.5 - 0.0 - Cloudy 10 - - - -
26/09:00am 24.3 E 9 14 1017.6 - 0.0 - Partly cloudy 10 - - - -
26/08:00am 23.9 E 7 10 1017.1 - 0.0 - Partly cloudy 10 - - - -
26/07:00am 23.4 E 8 12 1015.1 - 0.0 - Cloudy 10 - - - -
26/06:00am 23.2 E 6 10 1016.1 - 0.0 - Partly cloudy 10 - - - -
26/05:18am 23.2 E 7 11 1015.8 - 0.0 - Partly cloudy 10 - - - -
26/05:00am 23.0 E 6 10 1015.7 - 0.0 - Partly cloudy 10 - - - -
26/04:50am 23.2 E 7 9 1015.6 - 0.0 - Partly cloudy 10 - - - -
26/04:40am 23.1 E 8 12 1015.7 - 0.0 - Partly cloudy 10 - - - -
26/04:21am 23.3 E 7 9 1015.8 - 0.0 - Partly cloudy 10 - - - -
26/04:00am 23.3 E 8 11 1014.3 - 0.0 - Mostly cloudy 10 - - - -
26/03:06am 23.4 E 7 10 1016.3 - 0.0 - Partly cloudy 10 - - - -
26/03:00am 23.5 E 7 11 1016.3 - 0.0 - Partly cloudy 10 - - - -
26/02:00am 23.4 E 7 11 1016.5 - 0.0 - Partly cloudy 10 - - - -
26/01:00am 23.5 E 8 13 1015.6 - 0.0 - Cloudy 10 - - - -
26/12:34am 23.5 E 8 13 1017.2 - 0.0 - Partly cloudy 10 - - - -
26/12:32am 23.5 E 8 13 1017.2 - 0.0 - Partly cloudy 10 - - - -
26/12:20am 23.5 E 9 11 1017.3 - 0.0 - Partly cloudy 10 - - - -
26/12:10am 23.5 E 8 11 1017.3 - 0.0 - Partly cloudy 10 - - - -
26/12:00am 23.4 E 8 11 1017.3 - 0.0 - Partly cloudy 10 - - - -
 
Date/Time
WST
Temp

°C
Wind Pressure Rain
since 9am
mm
Weather Cloud Vis
km
Sea
Height
m
Swell
Dir
 
Speed
knots
Gust
knots
hPa Trend Height
m
Period
s
Dir
25/11:19pm 23.6 E 8 11 1017.3 - 0.0 - Partly cloudy 10 - - - -
25/11:00pm 23.6 E 9 13 1017.2 - 0.0 - Partly cloudy 10 - - - -
25/10:49pm 23.6 E 8 11 1017.2 - 0.0 - Partly cloudy 10 - - - -

Other Formats:

Comma delimited format used in spreadsheet applications
http://www.bom.gov.au/fwo/IDW60701/IDW60701.96995.axf

JavaScript Object Notation format (JSON) in row-major order
http://www.bom.gov.au/fwo/IDW60701/IDW60701.96995.json